Weather History for KMAF - December, 2012

Change the Weather History Date:

Wednesday, December 19, 2012

  Actual Average Record
Temperature  
Mean Temperature 53 °F 44 °F  
Max Temperature 70 °F 57 °F 78 °F (1978)
Min Temperature 36 °F 30 °F 10 °F (1996)
Degree Days  
Heating Degree Days 12 21  
Month to date heating degree days 235 378  
Since 1 July heating degree days 594 857  
Growing Degree Days 4 (Base 50)    
Moisture  
Dew Point 20 °F    
Average Humidity 26    
Maximum Humidity 42    
Minimum Humidity 9    
Precipitation  
Precipitation 0.00 in 0.02 in 0.39 in (1991)
Month to date precipitation 0.00 0.38  
Year to date precipitation 12.72 14.38  
Snow  
Snow 0.00 in - - ()
Month to date snowfall 0.0  
Since 1 July snowfall 0.0  
Snow Depth 0.00 in    
Sea Level Pressure  
Sea Level Pressure 29.73 in    
Wind  
Wind Speed 16 mph (WSW)    
Max Wind Speed 41 mph    
Max Gust Speed 52 mph    
Visibility 7 miles    
Events      
T = Trace of Precipitation, MM = Missing Value Source: NWS Daily Summary

Daily Weather History Graph

Daily Weather History Graph

Search for Another Location

Airport or City:

Trip Planner

Search our weather history database for the weather conditions in past years. The results will help you decide how hot, cold, wet, or windy it might be!

Date:

Astronomy

Dec. 19, 2012 Rise Set
Actual Time 7:44 AM CST 5:48 PM CST
Civil Twilight 7:17 AM CST 6:15 PM CST
Nautical Twilight 6:46 AM CST 6:45 PM CST
Astronomical Twilight 6:17 AM CST 7:15 PM CST
Moon 12:17 PM CST (12/19) No Moon Set
Length of Visible Light 10h 57m
Length of Day
10h 03m
Waxing Crescent, 45% of the Moon is Illuminated
Dec 19
Waxing Crescent
Dec 19
First Quarter
Dec 28
Full
Jan 4
Last Quarter
Jan 11
New

Hourly Weather History & Observations

Time (CST) Temp. Windchill Dew Point Humidity Pressure Visibility Wind Dir Wind Speed Gust Speed Precip Events Conditions
12:53 AM 48.9 °F - 18.0 °F 29% 29.66 in 10.0 mi West 8.1 mph - N/A   Clear
1:53 AM 52.0 °F - 19.0 °F 27% 29.63 in 10.0 mi SSW 5.8 mph - N/A   Clear
2:53 AM 45.0 °F 41.8 °F 19.9 °F 37% 29.62 in 10.0 mi South 5.8 mph - N/A   Clear
3:53 AM 46.0 °F 44.8 °F 23.0 °F 40% 29.59 in 10.0 mi South 3.5 mph - N/A   Clear
4:53 AM 53.1 °F - 27.0 °F 37% 29.57 in 10.0 mi South 8.1 mph - N/A   Clear
5:53 AM 48.0 °F - 26.1 °F 42% 29.59 in 10.0 mi SSW 4.6 mph - N/A   Clear
6:53 AM 48.9 °F - 27.0 °F 43% 29.60 in 10.0 mi South 5.8 mph - N/A   Clear
7:53 AM 50.0 °F - 27.0 °F 41% 29.60 in 10.0 mi SSW 6.9 mph - N/A   Clear
8:53 AM 51.1 °F - 25.0 °F 36% 29.62 in 10.0 mi SSW 6.9 mph - N/A   Clear
9:53 AM 54.0 °F - 21.9 °F 29% 29.63 in 10.0 mi SSW 8.1 mph - N/A   Clear
10:53 AM 64.0 °F - 10.9 °F 13% 29.61 in 10.0 mi SSW 16.1 mph 23.0 mph N/A   Clear
11:53 AM 69.1 °F - 10.0 °F 10% 29.60 in 10.0 mi WSW 18.4 mph - N/A   Clear
12:53 PM 69.1 °F - 9.0 °F 10% 29.60 in 10.0 mi WSW 16.1 mph - N/A   Clear
1:53 PM 70.0 °F - 8.1 °F 9% 29.59 in 10.0 mi West 21.9 mph 28.8 mph N/A   Clear
2:53 PM 70.0 °F - 15.1 °F 12% 29.59 in 10.0 mi West 20.7 mph 28.8 mph N/A   Overcast
3:44 PM 69.8 °F - 24.8 °F 18% 29.69 in 2.0 mi West 31.1 mph 40.3 mph N/A   Widespread Dust
3:53 PM 69.1 °F - 26.1 °F 20% 29.61 in 2.5 mi West 25.3 mph 40.3 mph N/A   Widespread Dust
3:55 PM 69.8 °F - 26.6 °F 20% 29.69 in 3.0 mi West 28.8 mph 40.3 mph N/A   Widespread Dust
4:02 PM 69.8 °F - 26.6 °F 20% 29.70 in 5.0 mi West 29.9 mph 38.0 mph N/A   Widespread Dust
4:31 PM 66.2 °F - 32.0 °F 28% 29.73 in 2.0 mi West 27.6 mph 39.1 mph N/A   Widespread Dust
4:53 PM 64.9 °F - 32.0 °F 29% 29.67 in 2.0 mi West 29.9 mph 43.7 mph N/A   Widespread Dust
5:09 PM 62.6 °F - 30.2 °F 30% 29.77 in 0.8 mi West 38.0 mph 51.8 mph N/A   Widespread Dust
5:53 PM 60.1 °F - 28.0 °F 30% 29.73 in 1.0 mi WNW 26.5 mph 36.8 mph N/A   Widespread Dust
6:53 PM 57.0 °F - 19.0 °F 23% 29.81 in 1.0 mi WNW 24.2 mph 38.0 mph N/A   Widespread Dust
7:00 PM 57.2 °F - 17.6 °F 21% 29.88 in 3.0 mi West 27.6 mph 36.8 mph N/A   Widespread Dust
7:53 PM 53.1 °F - 7.0 °F 16% 29.89 in 5.0 mi NW 18.4 mph 26.5 mph N/A   Widespread Dust
8:53 PM 50.0 °F - 8.1 °F 18% 29.95 in 10.0 mi NW 21.9 mph 29.9 mph N/A   Widespread Dust
9:53 PM 46.9 °F - 9.0 °F 21% 30.00 in 10.0 mi WNW 21.9 mph 27.6 mph N/A   Clear
10:53 PM 42.1 °F 31.7 °F 18.0 °F 38% 30.07 in 5.0 mi North 27.6 mph 42.6 mph N/A   Scattered Clouds
11:02 PM 39.2 °F 28.5 °F 19.4 °F 45% 30.14 in 3.0 mi North 24.2 mph 33.4 mph N/A   Mostly Cloudy
11:53 PM 37.0 °F 26.2 °F 16.0 °F 42% 30.15 in 6.0 mi North 21.9 mph 26.5 mph 0.00 in   Mostly Cloudy